Weather History for Air Force Academy, CO

Change the Weather History Date:

Thursday, April 4, 2013

  Actual Average Record
Temperature  
Mean Temperature 46 °F -  
Max Temperature 64 °F 51 °F 71 °F (2006)
Min Temperature 28 °F 27 °F 13 °F (2014)
Degree Days  
Heating Degree Days 19    
Moisture  
Dew Point 20 °F    
Average Humidity 41    
Maximum Humidity 87    
Minimum Humidity 16    
Precipitation  
Precipitation 0.00 in - - ()
Sea Level Pressure  
Sea Level Pressure 30.07 in    
Wind  
Wind Speed 9 mph (East)    
Max Wind Speed 16 mph    
Max Gust Speed 20 mph    
Visibility 10 miles    
Events      
Averages and records for this station are not official NWS values.
T = Trace of Precipitation, MM = Missing Value Source: NWS Daily Summary

Daily Weather History Graph

Daily Weather History Graph

Search for Another Location

Airport:

Trip Planner

Search our weather history database for the weather conditions in past years. The results will help you decide how hot, cold, wet, or windy it might be!

Date:

Astronomy

Apr. 04, 2013 Rise Set
Actual Time 6:38 AM MDT 7:26 PM MDT
Civil Twilight 6:11 AM MDT 7:53 PM MDT
Nautical Twilight 5:39 AM MDT 8:25 PM MDT
Astronomical Twilight 5:06 AM MDT 8:58 PM MDT
Moon 3:04 AM MDT (4/4) 1:49 PM MDT (4/4)
Length of Visible Light 13h 41m
Length of Day
12h 47m
Waning Crescent, 33% of the Moon is Illuminated
Apr 4
Waning Crescent
Apr 10
New
Apr 18
First Quarter
Apr 25
Full
May 2
Last Quarter

Hourly Weather History & Observations

Time (MDT) Temp. Windchill Dew Point Humidity Pressure Visibility Wind Dir Wind Speed Gust Speed Precip Events Conditions
12:58 AM 28.2 °F 18.3 °F 24.3 °F 85% 30.17 in 10.0 mi North 11.5 mph - N/A   Clear
1:58 AM 30.2 °F 21.3 °F 26.8 °F 87% 30.13 in 10.0 mi NNE 10.4 mph - N/A   Clear
2:58 AM 28.9 °F 20.4 °F 24.4 °F 83% 30.13 in 10.0 mi North 9.2 mph - N/A   Clear
3:58 AM 31.5 °F 21.8 °F 24.4 °F 75% 30.11 in 10.0 mi North 12.7 mph - N/A   Clear
4:58 AM 29.7 °F 21.3 °F 23.9 °F 79% 30.14 in 10.0 mi North 9.2 mph - N/A   Clear
5:58 AM 30.2 °F 24.3 °F 22.1 °F 72% 30.15 in 10.0 mi North 5.8 mph - N/A   Clear
6:58 AM 28.6 °F 20.7 °F 21.7 °F 76% 30.17 in 10.0 mi North 8.1 mph - N/A   Clear
7:58 AM 36.7 °F 32.0 °F 25.2 °F 63% 30.18 in 10.0 mi NNE 5.8 mph - N/A   Clear
8:58 AM 49.5 °F - 21.6 °F 33% 30.11 in 10.0 mi North 2.3 mph - N/A   Clear
9:58 AM 55.0 °F - 19.6 °F 25% 30.13 in 10.0 mi South 6.9 mph - N/A   Clear
10:58 AM 57.4 °F - 18.0 °F 21% 30.13 in 10.0 mi NE 5.8 mph - N/A   Clear
11:58 AM 59.4 °F - 17.4 °F 20% 30.12 in 10.0 mi Variable 2.3 mph - N/A   Clear
12:58 PM 61.0 °F - 18.1 °F 19% 30.09 in 10.0 mi Variable 3.5 mph - N/A   Partly Cloudy
1:58 PM 63.1 °F - 17.2 °F 17% 30.02 in 10.0 mi South 13.8 mph 17.3 mph N/A   Clear
2:58 PM 63.3 °F - 17.6 °F 17% 30.02 in 10.0 mi SE 11.5 mph - N/A   Clear
3:58 PM 64.4 °F - 16.3 °F 16% 29.99 in 10.0 mi SSE 12.7 mph - N/A   Clear
4:58 PM 64.0 °F - 17.2 °F 16% 29.98 in 10.0 mi SSE 15.0 mph 19.6 mph N/A   Clear
5:58 PM 62.4 °F - 16.5 °F 17% 30.00 in 10.0 mi SSE 16.1 mph - N/A   Clear
6:58 PM 58.3 °F - 16.5 °F 20% 30.03 in 10.0 mi SSE 12.7 mph - N/A   Clear
7:58 PM 55.0 °F - 16.9 °F 22% 30.02 in 10.0 mi SSE 10.4 mph - N/A   Clear
8:58 PM 50.9 °F - 17.4 °F 27% 29.99 in 10.0 mi SSE 11.5 mph - N/A   Clear
9:58 PM 50.0 °F - 18.3 °F 29% 29.97 in 10.0 mi SE 10.4 mph - N/A   Clear
10:58 PM 48.7 °F - 18.1 °F 30% 29.97 in 10.0 mi SE 10.4 mph - N/A   Clear
11:58 PM 47.1 °F - 18.5 °F 32% 29.95 in 10.0 mi SSW 3.5 mph - N/A   Clear